[[{"header":{"parameterUnit":"m.s-1","parameterCategory":1,"la1":30.2991,"la2":30.254,"lo1":-89.0895,"lo2":-89.0444,"dy":0.0017,"dx":0.0017,"nx":28,"ny":28,"refTime":"2024-08-25T21:00:00:Z","depth":0,"parameterNumber":2,"parameterNumberName":"U-component_of_WINDS"},"data":[0,0,0,0,0,0,0,0,0,0,0,0,0,0,0,0,0,0,0,0,0,0,0,0,0,0,0,0,0,0,0,0,0,0,0,0,0,0,0,0,0,0,0,0,0,0,0,0,0,0,0,0,0,0,0,0,0,0,-2.2993,-2.2994,0,-2.304,-2.304,-2.3041,-2.3049,-2.3048,-2.3048,-2.3048,-2.3095,-2.3097,-2.3099,0,0,0,0,0,0,0,0,0,0,0,0,0,-2.2912,-2.2913,-2.2993,-2.2994,-2.2994,-2.3039,-2.304,-2.3041,-2.3049,-2.3048,-2.3048,-2.3047,-2.3095,-2.3097,-2.3099,0,0,0,0,0,0,0,0,0,0,0,0,0,-2.2952,-2.2914,-2.2993,-2.3004,-2.3005,-2.3039,-2.304,-2.3041,-2.3049,-2.3048,-2.3048,-2.3047,-2.3094,-2.3097,-2.3099,-2.3126,0,0,-2.3106,-2.3108,0,0,0,0,0,0,0,0,-2.2949,-2.2955,-2.3002,-2.3003,-2.3005,-2.3038,-2.3029,-2.3069,-2.3049,-2.3032,-2.3048,-2.3047,-2.3077,-2.3081,-2.3091,-2.3128,-2.313,-2.3107,-2.3108,-2.3109,-2.311,0,0,0,0,0,0,0,-2.2947,-2.2953,-2.3012,-2.3002,-2.3004,-2.3006,-2.3011,-2.3037,-2.3057,-2.3034,-2.3034,-2.304,-2.3077,-2.3088,-2.3092,-2.3131,-2.3107,-2.3109,-2.311,-2.3111,-2.3193,-2.3194,0,0,0,0,0,0,-2.2942,-2.295,-2.301,-2.3013,-2.2975,-2.3008,-2.3014,-2.3028,-2.3057,-2.3061,-2.304,-2.304,-2.3084,-2.3089,-2.3093,-2.3127,-2.3109,-2.3112,-2.3113,-2.3193,-2.3193,-2.3194,0,0,0,0,0,0,-2.294,-2.2947,-2.3008,-2.2982,-2.299,-2.301,-2.3026,-2.3029,-2.304,-2.3062,-2.3066,-2.3047,-2.3084,-2.309,-2.3118,-2.3129,-2.3113,-2.3115,-2.3192,-2.3193,-2.3194,-2.3195,0,0,0,0,0,0,-2.2938,-2.2946,-2.2957,-2.2982,-2.2991,-2.3032,-2.3027,-2.303,-2.3044,-2.3044,-2.307,-2.3073,-2.3084,-2.3114,-2.312,-2.3132,-2.3117,-2.3191,-2.3192,-2.3193,-2.3194,-2.3196,-2.3198,0,0,0,0,0,-2.2935,-2.2955,-2.2957,-2.2964,-2.3004,-2.3032,-2.3038,-2.3049,-2.3045,-2.3055,-2.307,-2.3072,-2.3127,-2.3117,-2.3124,-2.3137,-2.319,-2.3192,-2.3193,-2.3193,-2.3196,-2.3198,0,0,0,0,0,0,-2.2931,-2.2959,-2.2961,-2.299,-2.3009,-2.3034,-2.3048,-2.3051,-2.3072,-2.3071,-2.3085,-2.309,-2.3118,-2.313,-2.3118,-2.3165,-2.3158,-2.3161,-2.3156,-2.3158,-2.316,-2.3157,-2.3119,0,0,0,0,0,-2.2933,-2.2954,-2.2977,-2.3,-2.3009,-2.3027,-2.3039,-2.3047,-2.3067,-2.3075,-2.3091,-2.311,-2.3132,-2.3145,-2.3166,-2.3196,-2.3202,-2.3208,-2.321,-2.3211,-2.3214,-2.3231,-2.3235,-2.3199,-2.3199,-2.3199,0,0,-2.2939,-2.2956,-2.2968,-2.3,-2.3015,-2.3036,-2.3033,-2.3055,-2.3071,-2.3078,-2.3106,-2.3118,-2.314,-2.3169,-2.3183,-2.318,-2.3225,-2.3213,-2.3214,-2.3216,-2.3233,-2.3237,-2.3239,-2.3201,-2.32,-2.32,0,0,-2.2959,-2.2974,-2.2996,-2.3012,-2.3035,-2.3046,-2.3051,-2.3075,-2.3084,-2.3112,-2.3117,-2.3136,-2.3173,-2.3189,-2.3202,-2.3228,-2.3232,-2.3235,-2.3244,-2.3261,-2.3264,-2.3266,-2.3277,-2.328,-2.3237,-2.3237,-2.3237,0,-2.2963,-2.2995,-2.3007,-2.3029,-2.3043,-2.305,-2.3072,-2.3086,-2.3115,-2.3125,-2.3121,-2.3167,-2.3183,-2.3216,-2.3222,-2.3232,-2.3239,-2.3232,-2.3262,-2.3265,-2.3268,-2.3278,-2.3282,-2.3237,-2.3237,-2.3237,-2.3237,0,-2.2999,-2.3021,-2.3036,-2.3064,-2.3079,-2.3101,-2.3116,-2.313,-2.3136,-2.3148,-2.3177,-2.3195,-2.3221,-2.3229,-2.3235,-2.3263,-2.3261,-2.326,-2.3254,-2.3271,-2.3281,-2.3285,-2.3238,-2.3238,-2.3238,-2.3238,0,0,-2.3019,-2.3053,-2.3059,-2.3072,-2.3098,-2.3115,-2.3137,-2.3162,-2.3174,-2.3193,-2.3213,-2.3244,-2.3243,-2.3257,-2.3265,-2.328,-2.3301,-2.3277,-2.3278,-2.3282,-2.3334,-2.3336,-2.334,-2.3303,-2.3304,-2.3304,-2.3333,0,-2.3044,-2.3084,-2.3095,-2.313,-2.315,-2.3157,-2.3177,-2.3195,-2.3206,-2.3226,-2.3238,-2.326,-2.3257,-2.3266,-2.3281,-2.3295,-2.3312,-2.3293,-2.3322,-2.3323,-2.3317,-2.3345,-2.3347,-2.3372,-2.3336,-2.3337,-2.3338,0,-2.3078,-2.3099,-2.3135,-2.3159,-2.3168,-2.3185,-2.3209,-2.3227,-2.3248,-2.3255,-2.3272,-2.3278,-2.3302,-2.3294,-2.3328,-2.3315,-2.3327,-2.3336,-2.3337,-2.3341,-2.3332,-2.3351,-2.3381,-2.3385,-2.3344,-2.3343,-2.3343,0,-2.3091,-2.3127,-2.3154,-2.3164,-2.3193,-2.3205,-2.3217,-2.3237,-2.3251,-2.3272,-2.3281,-2.3304,-2.3317,-2.3335,-2.3348,-2.334,-2.3381,-2.3373,-2.3388,-2.3388,-2.3397,-2.3397,-2.3431,-2.3403,-2.3403,-2.3403,-2.3403,0,-2.3118,-2.314,-2.316,-2.3176,-2.3202,-2.3214,-2.3239,-2.3251,-2.3269,-2.3288,-2.3295,-2.3313,-2.3328,-2.3348,-2.3358,-2.3385,-2.339,-2.3398,-2.34,-2.3398,-2.3397,-2.3407,-2.3406,-2.3404,-2.3404,-2.3404,-2.3403,0,-2.3136,-2.315,-2.318,-2.3204,-2.3211,-2.3228,-2.3249,-2.3266,-2.3277,-2.3302,-2.3308,-2.3326,-2.335,-2.3364,-2.3395,-2.3401,-2.3431,-2.3433,-2.3425,-2.3426,-2.344,-2.3439,-2.3483,-2.349,-2.3456,-2.3457,-2.3457,0,-2.3153,-2.3171,-2.3197,-2.321,-2.3223,-2.3244,-2.3259,-2.3271,-2.3286,-2.3311,-2.3325,-2.3349,-2.337,-2.3408,-2.3424,-2.3447,-2.345,-2.3463,-2.3453,-2.3451,-2.3451,-2.3451,-2.3453,-2.3466,-2.3466,-2.3466,-2.3466,0,-2.3182,-2.3188,-2.3209,-2.3233,-2.325,-2.3269,-2.3288,-2.3298,-2.3314,-2.3331,-2.3355,-2.3371,-2.3402,-2.3426,-2.3451,-2.3464,-2.3468,-2.3469,-2.3474,-2.3472,-2.3467,-2.3471,-2.3431,-2.3468,-2.3468,-2.3468,-2.3468,-2.3468,-2.3201,-2.3217,-2.3238,-2.3261,-2.3277,-2.3294,-2.3311,-2.3325,-2.3346,-2.3372,-2.3378,-2.3404,-2.3425,-2.3459,-2.3472,-2.3493,-2.3491,-2.3497,-2.3499,-2.3501,-2.3502,-2.3463,-2.3497,-2.3497,-2.3497,-2.3497,-2.3497,0,-2.3232,-2.3245,-2.3266,-2.3293,-2.3311,-2.3313,-2.3334,-2.3349,-2.3372,-2.3391,-2.3411,-2.3439,-2.3463,-2.3481,-2.3505,-2.3519,-2.3521,-2.3525,-2.3524,-2.3528,-2.3502,-2.3496,-2.3522,-2.3522,-2.3522,-2.3522,-2.3522,-2.3522,-2.325,-2.3277,-2.3286,-2.3321,-2.3335,-2.3361,-2.3373,-2.3389,-2.3404,-2.3436,-2.3455,-2.3467,-2.3486,-2.3511,-2.3533,-2.3538,-2.3547,-2.3551,-2.3556,-2.3532,-2.3529,-2.3527,-2.3521,-2.3552,-2.3552,-2.358,-2.358,-2.358]},{"header":{"parameterUnit":"m.s-1","parameterCategory":1,"la1":30.2991,"la2":30.254,"lo1":-89.0895,"lo2":-89.0444,"dy":0.0017,"dx":0.0017,"nx":28,"ny":28,"refTime":"2024-08-25T21:00:00:Z","depth":0,"parameterNumber":3,"parameterNumberName":"V-component_of_WINDS"},"data":[0,0,0,0,0,0,0,0,0,0,0,0,0,0,0,0,0,0,0,0,0,0,0,0,0,0,0,0,0,0,0,0,0,0,0,0,0,0,0,0,0,0,0,0,0,0,0,0,0,0,0,0,0,0,0,0,0,0,-2.8945,-2.8945,0,-2.8903,-2.8902,-2.8902,-2.8806,-2.8804,-2.8802,-2.88,-2.8758,-2.8759,-2.876,0,0,0,0,0,0,0,0,0,0,0,0,0,-2.8945,-2.8945,-2.8945,-2.8945,-2.8944,-2.8903,-2.8902,-2.8902,-2.8806,-2.8804,-2.8802,-2.8799,-2.8758,-2.8759,-2.876,0,0,0,0,0,0,0,0,0,0,0,0,0,-2.8928,-2.8946,-2.8945,-2.8891,-2.8886,-2.8903,-2.8902,-2.8902,-2.8807,-2.8804,-2.8801,-2.8798,-2.8758,-2.8759,-2.876,-2.8826,0,0,-2.8763,-2.8764,0,0,0,0,0,0,0,0,-2.8929,-2.8928,-2.89,-2.8895,-2.8889,-2.8857,-2.8887,-2.8877,-2.8808,-2.8837,-2.88,-2.8797,-2.8794,-2.8792,-2.879,-2.8824,-2.8823,-2.8764,-2.8764,-2.8765,-2.8765,0,0,0,0,0,0,0,-2.8931,-2.893,-2.8928,-2.89,-2.8893,-2.887,-2.8864,-2.8885,-2.8833,-2.8834,-2.8827,-2.8823,-2.879,-2.8789,-2.8789,-2.8822,-2.8764,-2.8765,-2.8765,-2.8766,-2.891,-2.8913,0,0,0,0,0,0,-2.8939,-2.8931,-2.893,-2.8927,-2.8902,-2.8873,-2.8866,-2.887,-2.8832,-2.8823,-2.8826,-2.8819,-2.8789,-2.8787,-2.8787,-2.8863,-2.8765,-2.8766,-2.8766,-2.8907,-2.8911,-2.8914,0,0,0,0,0,0,-2.894,-2.894,-2.8931,-2.8927,-2.8924,-2.8876,-2.8881,-2.8871,-2.887,-2.8826,-2.8816,-2.8835,-2.8787,-2.8785,-2.8818,-2.886,-2.8766,-2.8767,-2.8903,-2.8908,-2.8913,-2.9016,0,0,0,0,0,0,-2.894,-2.8941,-2.8965,-2.8928,-2.8925,-2.8963,-2.8883,-2.8872,-2.8872,-2.8863,-2.8831,-2.8823,-2.8784,-2.8816,-2.8819,-2.886,-2.8768,-2.8899,-2.8906,-2.8911,-2.9008,-2.9023,-2.9036,0,0,0,0,0,-2.894,-2.8995,-2.8967,-2.8967,-2.8954,-2.8965,-2.8963,-2.8916,-2.8876,-2.89,-2.8872,-2.8824,-2.8855,-2.8821,-2.8822,-2.8865,-2.8896,-2.8904,-2.8911,-2.9002,-2.902,-2.9036,0,0,0,0,0,0,-2.9038,-2.899,-2.8957,-2.9002,-2.8988,-2.8949,-2.8978,-2.8937,-2.8935,-2.8927,-2.8869,-2.8863,-2.8904,-2.8887,-2.8849,-2.8928,-2.8868,-2.8876,-2.8937,-2.8954,-2.8968,-2.8971,-2.8769,0,0,0,0,0,-2.9065,-2.9077,-2.9034,-2.9078,-2.9073,-2.9027,-2.903,-2.8996,-2.8979,-2.8973,-2.8947,-2.8934,-2.8941,-2.8946,-2.895,-2.9005,-2.8998,-2.9035,-2.905,-2.9061,-2.9069,-2.9099,-2.9115,-2.8938,-2.8938,-2.8938,0,0,-2.912,-2.9095,-2.9107,-2.9097,-2.9083,-2.9098,-2.9023,-2.9042,-2.9053,-2.8976,-2.9005,-2.8986,-2.8968,-2.9012,-2.9031,-2.9,-2.9116,-2.907,-2.908,-2.9081,-2.9108,-2.9125,-2.914,-2.8943,-2.8942,-2.8941,0,0,-2.9229,-2.9211,-2.9246,-2.9233,-2.9212,-2.9181,-2.919,-2.9157,-2.9142,-2.917,-2.9113,-2.9126,-2.9138,-2.9128,-2.9124,-2.9231,-2.9188,-2.9234,-2.9308,-2.9337,-2.9351,-2.9364,-2.9403,-2.9418,-2.9242,-2.9242,-2.9242,0,-2.93,-2.932,-2.9269,-2.9292,-2.929,-2.9222,-2.9258,-2.9248,-2.923,-2.9231,-2.9196,-2.9211,-2.9194,-2.9236,-2.9262,-2.9261,-2.927,-2.9238,-2.9353,-2.9365,-2.9376,-2.9413,-2.9428,-2.9248,-2.9247,-2.9247,-2.9246,0,-2.941,-2.9425,-2.9456,-2.9441,-2.9442,-2.9472,-2.9426,-2.9434,-2.94,-2.9373,-2.9404,-2.9381,-2.9379,-2.9386,-2.9353,-2.9424,-2.9406,-2.9364,-2.9303,-2.9399,-2.9433,-2.9447,-2.9256,-2.9254,-2.9252,-2.9251,0,0,-2.9579,-2.9535,-2.9548,-2.954,-2.9513,-2.9524,-2.9551,-2.9549,-2.9558,-2.9548,-2.957,-2.9583,-2.9544,-2.954,-2.9505,-2.9531,-2.9619,-2.9485,-2.9484,-2.9512,-2.9699,-2.9732,-2.9749,-2.959,-2.9593,-2.9595,-2.9701,0,-2.9682,-2.9725,-2.968,-2.9733,-2.9747,-2.9683,-2.9707,-2.9694,-2.967,-2.9679,-2.9652,-2.9663,-2.961,-2.9607,-2.963,-2.9604,-2.9656,-2.9595,-2.9612,-2.9613,-2.9619,-2.9766,-2.9801,-2.9902,-2.9713,-2.9716,-2.9717,0,-2.9807,-2.9804,-2.9858,-2.9829,-2.9833,-2.9855,-2.9851,-2.986,-2.9844,-2.9825,-2.9822,-2.978,-2.9805,-2.9746,-2.9781,-2.9741,-2.9745,-2.9734,-2.9736,-2.9737,-2.9671,-2.9772,-2.9933,-2.9949,-2.9737,-2.9736,-2.9734,0,-2.9927,-2.9936,-2.9969,-2.9965,-2.9931,-2.9949,-2.9936,-2.9916,-2.9919,-2.9916,-2.9917,-2.9917,-2.9917,-2.9919,-2.9878,-2.9838,-2.9919,-2.9856,-2.9905,-2.9907,-2.9926,-2.9925,-3.0091,-2.9927,-2.9927,-2.9927,-2.9926,0,-3.0047,-3.0083,-3.0023,-3.0044,-3.0083,-3.0032,-3.0072,-3.0052,-3.0037,-3.0053,-2.9998,-3.0015,-2.996,-2.9972,-2.994,-2.9975,-2.9976,-2.9962,-2.9953,-2.9968,-2.997,-2.997,-2.9962,-2.9931,-2.993,-2.9929,-2.9928,0,-3.0187,-3.0148,-3.0181,-3.0147,-3.0139,-3.017,-3.014,-3.0159,-3.0132,-3.0154,-3.0157,-3.0115,-3.0126,-3.0086,-3.009,-3.0069,-3.0121,-3.01,-3.0127,-3.0121,-3.0173,-3.0169,-3.0346,-3.0367,-3.0189,-3.019,-3.0192,0,-3.0267,-3.0293,-3.0262,-3.0269,-3.0259,-3.0272,-3.0274,-3.0225,-3.023,-3.0215,-3.0236,-3.0243,-3.0246,-3.0267,-3.0237,-3.0241,-3.022,-3.0282,-3.022,-3.0235,-3.0223,-3.0222,-3.0226,-3.0295,-3.0297,-3.0299,-3.03,0,-3.0413,-3.0393,-3.0398,-3.0398,-3.0402,-3.0399,-3.0393,-3.0402,-3.035,-3.0359,-3.037,-3.0372,-3.0377,-3.0385,-3.0382,-3.037,-3.0328,-3.032,-3.0332,-3.0347,-3.0362,-3.0356,-3.0163,-3.0316,-3.0315,-3.0313,-3.0313,-3.0312,-3.0526,-3.0547,-3.0529,-3.0537,-3.0527,-3.0523,-3.054,-3.0515,-3.0523,-3.0523,-3.0494,-3.0511,-3.0496,-3.0488,-3.048,-3.0494,-3.0465,-3.0482,-3.0486,-3.0492,-3.0501,-3.0359,-3.0493,-3.0492,-3.0492,-3.0492,-3.0491,0,-3.067,-3.0656,-3.0664,-3.0657,-3.0664,-3.0623,-3.0614,-3.0624,-3.0639,-3.0629,-3.0633,-3.0646,-3.0654,-3.0626,-3.063,-3.0646,-3.0627,-3.0649,-3.0648,-3.0646,-3.0526,-3.0516,-3.0665,-3.0665,-3.0665,-3.0664,-3.0664,-3.0664,-3.0746,-3.078,-3.0758,-3.0788,-3.0773,-3.0789,-3.0788,-3.0784,-3.0776,-3.0793,-3.0799,-3.0781,-3.0763,-3.0766,-3.0772,-3.0763,-3.0768,-3.0797,-3.0782,-3.0671,-3.0654,-3.0638,-3.0628,-3.0798,-3.0799,-3.0901,-3.0902,-3.0903]}]]